星链-36375(STARLINK-36375)

导读 | 豆包AI

STARLINK-36375是美国太空探索技术公司发射的星链计划卫星,发射于2026年2月20日,归属星链星座组网体系,主要用于为全球提供高速互联网覆盖服务,尤其服务偏远地区、海上、航空等传统网络难以覆盖的场景。作为星链低轨星座的新增节点,它进一步扩充了星座规模,提升星座全球服务的容量与稳定性,延续星链低轨卫星通信的技术路线,依托近地轨道降低通信传输延迟。

基本信息
目录编号:
67873
目录名称:
STARLINK-36783
国际标识:
2026-034Z
轨道中心:
EARTH
卫星名称:
星链-36375
卫星全名:
星链-36375(STARLINK-36375)
卫星状态:
在轨 (已飞行22 天)
发射日期:
2026-02-20 UTC
国别 :
美国 (US)
星等 :
--
轨道信息
数据来源 国际轨道数据
星历时间: 2026-03-14T21:58:28+0800
7小时前
查看轨道信息
半长轴: 6705.874km
偏心率: 0.0001474
轨道倾角: 53.158°
近地点辐角 95.732°
升交点赤经 186.632°
平近点角 264.387°
近地点: 326.748km
远地点: 328.726km
周期: 91.084分钟
每日圈数: 15.809559
详细信息
固有亮度:
5
最大亮度:
2.5
卫星平台:
Starlink V1.0
覆盖范围:
全球
运营商:
太空探索技术公司
运营商所在国:
美国
制造商(研发单位):
太空探索技术公司
制造商所在国:
美国
使用方式:
暂无
卫星简介
Starlink 计划是 SpaceX 推出的全球卫星互联网项目,通过发射低轨道卫星,为全球尤其是偏远地区提供高速、低延迟的互联网服务。自 2019 年起,Starlink 已部署数千颗卫星,旨在缩小全球数字鸿沟,推动互联网普及。该项目还为军事、航空等行业提供通信支持,带来广泛经济效益。
2D轨道图
3D轨道图
轨道高度分析图
轨道倾角分析图
轨道综合分析图
查看轨道综合分析图